This is the latest recevied weather packets stored in our database for station/object K5WNG. If no packets are shown the sender has not sent any weather packets the latest 10 day(s).
| Time | Temp. | Humidity | Pressure | Rain* | Wind** | Luminosity | Snow |
|---|---|---|---|---|---|---|---|
| 1778192421 | 18.89° C | 68% | 1015.6 hPa | 0 mm | - | 215 W/m² | - |
| 1778192118 | 19.44° C | 68% | 1015.5 hPa | 0 mm | - | 222 W/m² | - |
| 1778191818 | 19.44° C | 67% | 1015.6 hPa | 0 mm | - | 208 W/m² | - |
| 1778191522 | 19.44° C | 67% | 1015.5 hPa | 0 mm | - | 201 W/m² | - |
| 1778191218 | 19.44° C | 67% | 1015.5 hPa | 0 mm | - | 265 W/m² | - |
| 1778190921 | 19.44° C | 66% | 1015.6 hPa | 0 mm | - | 304 W/m² | - |
| 1778190618 | 19.44° C | 67% | 1015.8 hPa | 0 mm | - | 230 W/m² | - |
| 1778190318 | 20° C | 67% | 1015.9 hPa | 0 mm | - | 206 W/m² | - |
| 1778190021 | 20° C | 65% | 1016 hPa | 0 mm | - | 222 W/m² | - |
| 1778189715 | 20.56° C | 65% | 1016.1 hPa | 0 mm | - | 303 W/m² | - |
| 1778189422 | 20.56° C | 63% | 1016 hPa | 0 mm | - | 586 W/m² | - |
| 1778189118 | 20° C | 66% | 1015.7 hPa | 0 mm | - | 682 W/m² | - |
| 1778188819 | 19.44° C | 67% | 1015.6 hPa | 0 mm | - | 519 W/m² | - |
| 1778188515 | 18.89° C | 69% | 1015.6 hPa | 0 mm | - | 354 W/m² | - |
| 1778188219 | 18.89° C | 69% | 1015.5 hPa | 0 mm | - | 396 W/m² | - |
| 1778187919 | 18.89° C | 69% | 1015.8 hPa | 0 mm | - | 377 W/m² | - |
| 1778187619 | 18.33° C | 69% | 1015.8 hPa | 0 mm | - | 380 W/m² | - |
| 1778187316 | 18.33° C | 69% | 1015.7 hPa | 0 mm | - | 270 W/m² | - |
| 1778187016 | 18.33° C | 70% | 1016 hPa | 0 mm | - | 213 W/m² | - |
| 1778186716 | 18.33° C | 70% | 1016.3 hPa | 0 mm | - | 200 W/m² | - |
| 1778186421 | 18.33° C | 69% | 1016.3 hPa | 0 mm | - | 238 W/m² | - |
| 1778186117 | 18.33° C | 69% | 1016.4 hPa | 0 mm | - | 313 W/m² | - |
| 1778185817 | 18.33° C | 69% | 1016.4 hPa | 0 mm | - | 323 W/m² | - |
| 1778185521 | 18.33° C | 70% | 1016.6 hPa | 0 mm | - | 277 W/m² | - |
| 1778185220 | 18.89° C | 69% | 1016.4 hPa | 0 mm | - | 251 W/m² | - |
* Rain latest hour (hover to see other rain measurements)
** Current wind speed in m/s (hover to see current wind gust speed)